Tuxtla Gutierrez, Mexico

12:54 AM CDT on July 27, 2017 (GMT -0500)
Francisco Sarabia

Weather History for MMTG - December, 2012

Change the Weather History Date:

Sunday, December 9, 2012

  Actual Average Record
Temperature  
Mean Temperature 76 °F -  
Max Temperature 90 °F 74 °F 93 °F (2008)
Min Temperature 61 °F 59 °F 51 °F (2002)
Cooling Degree Days 10    
Growing Degree Days 26 (Base 50)    
Moisture  
Dew Point 60 °F    
Average Humidity 64    
Maximum Humidity 100    
Minimum Humidity 29    
Precipitation  
Precipitation 0.00 in - - ()
Sea Level Pressure  
Sea Level Pressure 29.90 in    
Wind  
Wind Speed 1 mph ()    
Max Wind Speed 6 mph    
Max Gust Speed -    
Visibility 10.1 miles    
Events      
Averages and records for this station are not official NWS values.
T = Trace of Precipitation, MM = Missing Value Source: Averaged Metar Reports

Daily Weather History Graph

Daily Weather History Graph

Search for Another Location

Airport or City:

Trip Planner

Search our weather history database for the weather conditions in past years. The results will help you decide how hot, cold, wet, or windy it might be!

Date:

Astronomy

Dec. 09, 2012 Rise Set
Actual Time 6:30 AM CST 5:39 PM CST
Civil Twilight 6:06 AM CST 6:03 PM CST
Nautical Twilight 5:40 AM CST 6:30 PM CST
Astronomical Twilight 5:13 AM CST 6:56 PM CST
Moon 2:30 AM CST (12/9) 2:24 PM CST (12/9)
Length of Visible Light 11h 56m
Length of Day
11h 09m
Waning Crescent, 18% of the Moon is Illuminated
Dec 9
Waning Crescent
Dec 13
New
Dec 19
First Quarter
Dec 28
Full
Jan 4
Last Quarter

Hourly Weather History & Observations

Time (CST) Temp. Heat Index Dew Point Humidity Pressure Visibility Wind Dir Wind Speed Gust Speed Precip Events Conditions
12:42 AM 62.6 °F - 59.0 °F 88% 29.94 in 10.0 mi Calm Calm - N/A   Clear
1:40 AM 60.8 °F - 57.2 °F 88% 29.94 in 10.0 mi Calm Calm - N/A   Clear
2:35 AM 67 °F - 62 °F 79% 29.85 in 9 mi North 2.2 mph - -  
2:46 AM 57.2 °F - 55.4 °F 94% 29.85 in 10.0 mi Calm Calm - N/A   Clear
5:35 AM 63 °F - 60 °F 86% 29.91 in 9 mi SW 2.2 mph - -  
5:41 AM 55.4 °F - 55.4 °F 100% 29.91 in 7.0 mi Calm Calm - N/A   Clear
6:40 AM 55.4 °F - 55.4 °F 100% 30.00 in 7.0 mi Calm Calm - N/A   Clear
7:45 AM 62.6 °F - 59.0 °F 88% 30.02 in 7.0 mi Calm Calm - N/A   Clear
8:36 AM 68 °F - 63 °F 80% 29.97 in 9 mi West 2.2 mph - -  
8:40 AM 68.0 °F - 60.8 °F 78% 29.98 in 10.0 mi Calm Calm - N/A   Clear
9:45 AM 73.4 °F - 60.8 °F 65% 30.04 in 10.0 mi Calm Calm - N/A   Clear
10:41 AM 78.8 °F - 60.8 °F 54% 30.02 in 10.0 mi NW 3.5 mph - N/A   Clear
11:36 AM 82 °F - 67 °F 52% 29.91 in 9 mi SSE 2.2 mph - -  
11:43 AM 82.4 °F 82.5 °F 59.0 °F 45% 29.90 in 12.0 mi SE 4.6 mph - N/A   Clear
12:40 PM 86.0 °F 86.1 °F 60.8 °F 43% 29.92 in 12.0 mi NE 3.5 mph - N/A   Clear
1:43 PM 86.0 °F 85.4 °F 59.0 °F 40% 29.88 in 12.0 mi Calm Calm - N/A   Partly Cloudy
2:42 PM 89.6 °F 88.1 °F 57.2 °F 33% 29.77 in 12.0 mi Calm Calm - N/A   Partly Cloudy
3:36 PM 89 °F - 69 °F 42% 29.78 in 9 mi ESE 2.2 mph - -   Scattered Clouds
3:40 PM 91.4 °F 89.4 °F 55.4 °F 29% 29.84 in 12.0 mi SSE 5.8 mph - N/A   Partly Cloudy
4:45 PM 89.6 °F 88.1 °F 57.2 °F 33% 29.84 in 12.0 mi Calm Calm - N/A   Partly Cloudy
5:38 PM 83 °F - 67 °F 48% 29.76 in 9 mi SE 2.2 mph - -   Scattered Clouds
5:49 PM 75.2 °F - 57.2 °F 53% 29.80 in 12.0 mi SSW 4.6 mph - N/A   Partly Cloudy
6:46 PM 77.0 °F - 57.2 °F 50% 29.88 in 12.0 mi Calm Calm - N/A   Partly Cloudy
7:42 PM 73.4 °F - 59.0 °F 61% 29.91 in 12.0 mi Calm Calm - N/A   Clear
8:35 PM 75 °F - 67 °F 68% 29.83 in 9 mi East 2.2 mph - -  
8:44 PM 71.6 °F - 59.0 °F 64% 29.86 in 12.0 mi WSW 5.8 mph - N/A   Clear
9:49 PM 71.6 °F - 59.0 °F 64% 29.95 in 10.0 mi Calm Calm - N/A   Clear
10:46 PM 66.2 °F - 59.0 °F 78% 29.95 in 10.0 mi Calm Calm - N/A   Clear
11:36 PM 70 °F - 62 °F 69% 29.84 in 9 mi NNW 4.5 mph - -  
11:45 PM 77 °F - 63 °F 53% 29.83 in 9 mi WNW 2.2 mph - -